DW6386 Weather Reports


time (UTC)temp
C
wind
direction
speed
KPH
gust
KPH
rain 1hr
cm
rain 24hr
cm
rain mn
cm
humidity
%
barometer
mb
20260510070002 10 121 0.0 0.0 0.00 0.00 0.00 95 1012.6
20260510064601 10 121 0.0 0.0 0.00 0.00 0.00 96 1012.5
20260510063058 11 121 0.0 0.0 0.00 0.00 0.00 94 1012.5
20260510061556 11 121 0.0 0.0 0.00 0.00 0.00 95 1012.5
20260510060053 11 121 0.0 0.0 0.00 0.00 0.00 95 1012.6
20260510054550 12 121 0.0 0.0 0.00 0.00 0.00 96 1012.7
20260510053048 12 121 0.0 0.0 0.00 0.00 0.00 94 1012.7
20260510051548 12 121 0.0 0.0 0.00 0.00 0.00 94 1012.7
20260510050049 12 121 0.0 0.0 0.00 0.00 0.00 93 1012.7
20260510044543 12 121 0.0 0.0 0.00 0.00 0.00 92 1012.7
20260510043042 13 121 0.0 0.0 0.00 0.00 0.00 92 1012.6
20260510041536 13 120 0.0 0.0 0.00 0.00 0.00 91 1012.6
20260510040034 13 120 0.0 0.0 0.00 0.00 0.00 89 1012.6
20260510034541 14 120 0.0 0.0 0.00 0.00 0.00 89 1012.5
20260510033031 14 120 0.0 0.0 0.00 0.00 0.00 88 1012.5
20260510031531 14 120 0.0 0.0 0.00 0.00 0.00 86 1012.4
20260510030029 15 120 0.0 0.0 0.00 0.00 0.00 87 1012.3
20260510024529 15 120 0.0 0.0 0.00 0.00 0.00 86 1012.1
20260510023027 15 120 0.0 0.0 0.00 0.00 0.00 84 1012.1
20260510021526 15 121 0.0 0.0 0.00 0.00 0.00 83 1012.0
20260510020025 16 120 0.0 0.0 0.00 0.00 0.00 81 1011.7
20260510014526 16 120 0.0 0.0 0.00 0.00 0.00 78 1011.4
20260510013025 17 121 0.0 0.0 0.00 0.00 0.00 75 1011.1
20260510011536 17 121 0.0 0.0 0.00 0.00 0.00 73 1010.8
20260510010022 18 121 0.0 0.0 0.00 0.00 0.00 72 1010.6
20260510004523 18 120 0.0 0.0 0.00 0.00 0.00 70 1010.4
20260510003024 19 121 0.0 0.0 0.00 0.00 0.00 67 1010.4
20260510001523 20 121 0.0 0.0 0.00 0.00 0.00 66 1010.1
20260510000034 20 121 0.0 0.0 0.00 0.00 0.00 64 1009.9
20260509234522 21 120 0.0 0.0 0.00 0.00 0.00 62 1009.8
20260509233019 21 120 0.0 0.0 0.00 0.00 0.00 62 1009.6
20260509231518 22 120 0.0 0.0 0.00 0.00 0.00 60 1009.3
20260509230019 22 120 0.0 0.0 0.00 0.00 0.00 58 1009.3
20260509224518 22 120 0.0 0.0 0.00 0.00 0.00 57 1009.3
20260509223017 23 138 0.0 0.0 0.00 0.00 0.00 56 1009.2
20260509221515 23 129 0.0 3.2 0.00 0.00 0.00 53 1009.1
20260509220014 24 60 4.8 11.3 0.00 0.00 0.00 50 1009.3
20260509214520 24 76 0.0 3.2 0.00 0.00 0.00 53 1009.2
20260509213013 24 70 0.0 17.7 0.00 0.00 0.00 50 1009.2
20260509211515 25 146 0.0 6.4 0.00 0.00 0.00 51 1009.0
20260509210007 25 61 3.2 8.0 0.00 0.00 0.00 52 1008.8
20260509204504 24 63 0.0 3.2 0.00 0.00 0.00 63 1008.7
20260509203001 24 44 0.0 6.4 0.00 0.00 0.00 62 1009.0
20260509201608 24 46 0.0 4.8 0.00 0.00 0.00 62 1009.2
20260509200107 23 292 1.6 6.4 0.00 0.00 0.00 64 1009.5
20260509194555 23 295 1.6 8.0 0.00 0.00 0.00 62 1009.5
20260509193154 23 71 0.0 6.4 0.00 0.00 0.00 63 1009.6
20260509191550 23 28 3.2 9.7 0.00 0.00 0.00 62 1009.7
20260509190048 23 103 1.6 16.1 0.00 0.00 0.00 62 1009.7
20260509184558 23 49 3.2 11.3 0.00 0.00 0.00 64 1009.7
20260509183044 22 40 1.6 8.0 0.00 0.00 0.00 66 1009.7
20260509181547 21 58 3.2 9.7 0.00 0.00 0.00 66 1009.7
20260509180038 21 346 1.6 6.4 0.00 0.00 0.00 68 1009.8
20260509174539 21 46 3.2 11.3 0.00 0.00 0.00 68 1009.9
20260509173036 21 304 1.6 6.4 0.00 0.00 0.00 69 1010.0
20260509171535 21 274 3.2 9.7 0.00 0.00 0.00 69 1010.1
20260509170035 21 224 1.6 12.9 0.00 0.00 0.00 69 1010.2
20260509164531 22 350 3.2 11.3 0.00 0.00 0.00 71 1010.3
20260509163027 21 25 3.2 14.5 0.00 0.00 0.00 69 1010.6
20260509161529 20 32 8.0 17.7 0.00 0.00 0.00 70 1010.6
20260509160032 20 297 4.8 12.9 0.00 0.00 0.00 71 1010.6
20260509154522 20 44 3.2 11.3 0.00 0.00 0.00 73 1010.7
20260509153031 20 52 1.6 14.5 0.00 0.00 0.00 74 1010.7
20260509151517 20 353 0.0 9.7 0.00 0.00 0.00 72 1010.8
20260509150020 18 258 0.0 8.0 0.00 0.00 0.00 77 1010.8
20260509144523 18 46 1.6 16.1 0.00 0.00 0.00 77 1010.6
20260509143008 17 39 0.0 14.5 0.00 0.00 0.00 79 1010.6
20260509141508 17 32 4.8 11.3 0.00 0.00 0.00 78 1010.7
20260509140001 16 96 0.0 8.0 0.00 0.00 0.00 81 1010.7
20260509134612 16 153 0.0 3.2 0.00 0.00 0.00 83 1010.4
20260509133055 15 85 0.0 1.6 0.00 0.00 0.00 91 1010.5
20260509131550 13 61 0.0 1.6 0.00 0.00 0.00 94 1010.4
20260509130056 12 110 0.0 0.0 0.00 0.00 0.00 95 1010.8
20260509124545 11 119 0.0 0.0 0.00 0.00 0.00 97 1010.8
20260509123051 11 119 0.0 0.0 0.00 0.00 0.00 96 1010.8
20260509121553 11 119 0.0 0.0 0.00 0.00 0.00 97 1010.9
20260509120035 10 119 0.0 0.0 0.00 0.00 0.00 97 1011.1
20260509114537 10 119 0.0 0.0 0.00 0.00 0.00 97 1011.1
20260509113036 10 118 0.0 0.0 0.00 0.00 0.00 97 1010.8
20260509111529 9 116 0.0 0.0 0.00 0.00 0.00 97 1010.8
20260509110032 9 115 0.0 0.0 0.00 0.00 0.00 97 1010.5
20260509104538 8 115 0.0 0.0 0.00 0.00 0.00 97 1010.5
20260509103027 8 115 0.0 0.0 0.00 0.00 0.00 96 1010.5
20260509101533 8 115 0.0 0.0 0.00 0.00 0.00 96 1010.8
20260509100028 8 115 0.0 0.0 0.00 0.00 0.00 96 1010.9
20260509094532 8 115 0.0 0.0 0.00 0.00 0.00 96 1011.0
20260509093025 8 115 0.0 0.0 0.00 0.00 0.00 96 1010.9
20260509091535 7 115 0.0 0.0 0.00 0.00 0.00 97 1010.8
20260509090025 7 115 0.0 0.0 0.00 0.00 0.00 96 1010.5
20260509084524 7 115 0.0 0.0 0.00 0.00 0.00 96 1010.4
20260509083021 7 113 0.0 0.0 0.00 0.00 0.00 96 1010.4
20260509081526 7 113 0.0 0.0 0.00 0.00 0.00 95 1010.3
20260509080019 7 113 0.0 0.0 0.00 0.00 0.00 95 1010.6
20260509074531 7 113 0.0 0.0 0.00 0.00 0.00 96 1010.5
20260509073018 7 113 0.0 0.0 0.00 0.00 0.00 95 1010.4
20260509071515 7 113 0.0 0.0 0.00 0.00 0.00 94 1010.6